Regional Weather Roundup
Issued by NWS Sioux Falls, SD

Home | Current Version | Previous Version | Graphics & Text | Print | Product List | Glossary Off
Versions: 1 2 3 4 5 6 7 8 9 10 11 12 13 14 15 16 17 18 19 20 21 22 23 24 25 26 27 28 29 30 31 32 33 34 35 36 37 38 39 40 41 42 43 44 45 46 47 48 49 50

000
ASUS43 KFSD 251702
RWRFSD

WEATHER ROUNDUP FOR SE SOUTH DAKOTA/SW MINNESOTA/NW IOWA
NATIONAL WEATHER SERVICE SIOUX FALLS SD
1200 PM CDT THU AUG 25 2016

NOTE: "FAIR" INDICATES FEW OR NO CLOUDS BELOW 12,000 FEET WITH NO
SIGNIFICANT WEATHER AND OR OBSTRUCTIONS TO VISIBILITY.


SDZ038>040-050-052>070-251800-
SOUTHEAST SOUTH DAKOTA

CITY           SKY/WX    TMP DP  RH WIND       PRES   REMARKS
BROOKINGS      PTSUNNY   63  52  67 W10       30.15S
CHAMBERLAIN    SUNNY     69  50  51 NW13      30.22S
HURON          SUNNY     67  50  54 NW14G21   30.16F
MADISON        FAIR      63  55  77 NW14G20   30.17S
MITCHELL       MOSUNNY   67  53  61 NW12G17   30.19F
SIOUX FALLS    CLOUDY    67  54  63 NW13      30.16S
WINNER         FAIR      68  50  52 NW14G22   30.24R
YANKTON        CLOUDY    64  52  63 W10       30.18S
$$

MNZ071-072-080-081-089-090-097-098-251800-
SOUTHWEST MINNESOTA

CITY           SKY/WX    TMP DP  RH WIND       PRES   REMARKS
FAIRMONT       CLOUDY    68  56  65 NW7       30.13S
JACKSON        CLOUDY    68  52  56 W6        30.15S
LUVERNE        MOSUNNY   64  52  63 NW9       30.16S
MARSHALL       MOSUNNY   66  54  65 W10G17    30.13S
MONTEVIDEO     MOSUNNY   66  55  68 NW12      30.12S
REDWOOD FALLS  PTSUNNY   65  53  65 W12       30.11R
TRACY          CLOUDY    67  56  69 W7        30.13S
WINDOM         CLOUDY    68  54  60 W7        30.13S
WORTHINGTON    PTSUNNY   65  53  65 W6        30.16R
$$

IAZ001>003-012>014-020>022-031-032-NEZ013-014-SDZ071-251800-
NORTHWEST IOWA

CITY           SKY/WX    TMP DP  RH WIND       PRES   REMARKS
CHEROKEE       CLOUDY    68  59  74 NW6       30.15S
DENISON        CLOUDY    68  61  77 CALM      30.12S
ESTHERVILLE    CLOUDY    67  58  72 W3        30.14S
LE MARS        CLOUDY    68  57  68 NW12      30.17S
ORANGE CITY    PTSUNNY   66  57  72 N9        30.17S
SHELDON        PTSUNNY   66  57  72 NW7       30.15S
SIOUX CITY     PTSUNNY   68  59  73 NW8       30.16S
SPENCER        CLOUDY    69  55  60 NW3       30.15S
STORM LAKE     CLOUDY    68  61  77 NW7       30.15S
$$

ABBREVIATIONS USED IN REMARKS
   TC - TEMPERATURE IN CELSIUS
  WCI - WIND CHILL INDEX
   HX - HEAT INDEX
  VSB - VISIBILITY





USA.gov is the U.S. government's official web portal to all federal, state and local government web resources and services.